Weather Roundup
Issued by NWS Chicago, IL

Home | Current Version | Previous Version | Text Only | Print | Product List | Glossary On
Versions: 1 2 3 4 5 6 7 8 9 10 11 12 13 14 15 16 17 18 19 20 21 22 23 24 25 26 27 28 29 30 31 32 33 34 35 36 37 38 39 40 41 42 43 44 45 46 47 48 49 50
000
NZUS59 KLOT 232108
HRRLOT

CHICAGO AREA WEATHER ROUNDUP
NATIONAL WEATHER SERVICE CHICAGO/ROMEOVILLE IL
400 PM CDT SAT JUL 23 2016

NOTE: "FAIR" INDICATES FEW OR NO CLOUDS BELOW 12,000 FEET WITH NO
SIGNIFICANT WEATHER AND/OR OBSTRUCTIONS TO VISIBILITY.

* THESE STATIONS ARE NOT UNDER NWS QUALITY CONTROL. THEY ALSO MAY NOT
  REPORT WEATHER SUCH AS PRECIPITATION OR FOG.

ILZ005-006-012>014-019>023-232200-
NORTHEAST ILLINOIS

CITY           SKY/WX    TMP DP  RH WIND       PRES   REMARKS
OHARE          CLOUDY    90  74  59 S10       29.91F HX  99
MIDWAY         CLOUDY    92  73  53 SW8       29.92F HX 100
AURORA         CLOUDY    89  78  70 S8        29.93F HX 103
LANSING*       MOSUNNY   90  75  62 S8        29.94F HX 101
JOLIET*        PTSUNNY   89  78  70 SW6       29.92F HX 104
WAUKEGAN       CLOUDY    81  77  88 E6        29.94F HX  88
DUPAGE AIRPORT PTSUNNY   88  75  65 S8        29.92F HX  97
WHEELING       CLOUDY    88  76  67 E9        29.93F HX  99
MORRIS*        CLOUDY    88  77  69 S6        29.92F HX  99
LEWIS AIRPORT* MOSUNNY   87  73  63 S7        29.92F HX  95
NORTHERLY ISL    N/A     83  76  79 E6          N/A  HX  91
$$

WIZ051-052-058>065-066-070>072-232200-
SOUTHEAST WISCONSIN

CITY           SKY/WX    TMP DP  RH WIND       PRES   REMARKS
MILWAUKEE      TSTM      80  73  79 NE8       29.96S HX  84
KENOSHA*       CLOUDY    82  76  81 NE7       29.96F HX  89
RACINE*        LGT RAIN  81  75  82 E5        29.97F HX  87
BURLINGTON     PTSUNNY   78  76  94 NW7       29.98R HX  81
WAUKESHA       TSTM      72  66  83 S7        30.00S
WEST BEND      LGT RAIN  79  73  83 SW5       29.99R HX  82
$$

INZ001>003-010>013-019-020-232200-
NORTHWEST INDIANA

CITY           SKY/WX    TMP DP  RH WIND       PRES   REMARKS
GARY*          PTSUNNY   91 N/A N/A S5        29.94F
MICHIGAN CITY* NOT AVBL
RENSSELAER*    NOT AVBL
VALPARAISO     PTSUNNY   89  76  65 SW10      29.96F HX 100
$$

LMZ740>746-232200-
SOUTHERN LAKE MICHIGAN

STATION/POSITION TIME  SKY/WX   TEMP WIND        PRES    VSBY
                                AIR  DIR/SP/G
                 (UTC)          (F)  (DEG/KT/KT) (MB)    (MI)
HARRISON CRIB    2000            81   90/  6/  6   N/A
BURNHAM HARBOR   2100            82   CALM  /  5   N/A
CALUMET HARBOR   2000            82   80/  8/ 11 1013.9F
BURNS HARBOR     2000            82   70/  6/  7 1014.9F
MICHIGAN CITY    2000            80   10/  7/  7   N/A
$$

ABBREVIATIONS USED IN REMARKS
   TC - TEMPERATURE IN CELSIUS
  WCI - WIND CHILL INDEX
   HX - HEAT INDEX
  VSB - VISIBILITY
$$




USA.gov is the U.S. government's official web portal to all federal, state and local government web resources and services.